Cloud_Cover
83 100 100 100 95 81 100 5 3 46 100 100 89 100 100 100 100 100 100 100 100 100 100 100 100 100 100 99 100 78 100 100
80 100 100 100 100 100 100 89 98 95 100 97 90 90 100 100 100 100 100 100 100 100 100 100 100 100 100 100 100 88 79 73
100 99 100 87 100 99 100 100 100 100 100 100 90 25 15 5 91 100 100 100 100 100 100 100 100 90 100 74 98 100 99 95
100 100 66 39 100 76 100 100 100 96 77 96 85 60 57 67 100 100 100 100 100 100 100 100 100 79 69 100 100 100 99 95
100 100 100 46 57 95 87 100 89 48 47 98 100 90 92 100 100 100 100 100 100 100 100 76 99 97 70 100 87 100 92 94
100 98 100 93 100 100 97 87 100 87 95 100 100 96 100 100 100 100 100 100 100 100 96 86 86 100 100 100 100 82 96 59
32 99 100 100 100 99 97 100 100 100 100 100 90 96 100 100 100 100 100 100 100 100 100 100 99 100 98 85 74 86 62 70
13 96 100 100 100 100 100 100 100 100 100 100 100 99 100 100 100 100 100 100 100 100 100 92 79 39 98 37 56 93 56 52
52 99 61 100 100 100 97 100 100 100 100 100 100 100 100 100 100 100 100 100 100 100 100 100 96 87 38 51 70 85 41 19
96 100 91 62 88 100 100 99 100 100 100 100 100 100 100 100 100 100 100 100 100 100 100 100 100 100 100 100 76 100 84 5
100 100 100 94 95 100 100 100 100 100 100 100 100 100 100 100 100 100 100 97 100 100 100 79 100 100 98 100 93 78 75 65
100 100 100 100 100 100 100 100 100 100 100 100 100 100 100 100 100 100 100 100 100 100 100 100 100 97 100 89 88 78 100 51
100 100 100 100 100 100 100 100 100 100 100 100 100 100 100 100 100 100 100 100 100 100 100 100 100 97 100 100 100 98 100 100
100 100 100 100 100 100 38 90 100 100 100 100 100 100 100 100 100 100 100 100 100 100 100 100 100 100 100 99 100 100 100 100
100 100 100 100 100 99 61 98 100 100 100 100 100 100 100 100 100 100 100 100 100 100 100 100 100 100 100 98 100 100 100 100
100 100 96 100 100 100 100 99 100 97 100 100 100 100 100 100 100 100 100 100 100 100 97 100 100 100 100 100 100 100 100 100
100 100 100 100 100 100 100 100 61 79 100 100 100 100 100 100 100 100 100 100 100 100 100 100 100 100 100 100 100 100 100 100
100 100 100 100 100 100 100 100 41 69 100 100 100 100 100 100 100 100 100 100 100 100 100 100 100 100 100 100 100 100 100 100
100 100 100 100 100 100 100 93 4 55 100 100 100 100 100 100 100 100 100 100 100 100 100 100 100 100 100 100 100 100 100 100
100 100 100 100 100 100 100 51 19 100 100 100 100 100 100 100 100 100 100 100 100 100 100 100 100 100 100 100 100 100 100 100